contact:dominique.lefevre@mio.osupytheas.fr, maurice.libes@osupytheas.fr, didier.mallarino@osupytheas.fr
Project:EMSO http://www.emso-fr.org/EMSO-France
Depth: 2436.0 m
Title:EMSO Ligure Ouest : Data MII capteur MICROCAT
DateTime_Computer,Latitude,Longitude,Temperature,Conductivity,Pressure,DateTime_Instrument
DateTime_Computer,Latitude,Longitude,degC,S m-1,dbar,DateTime_Instrument
2020-04-26T00:00:25Z,42.805,6.029,13.2971,4.59981,2470.124,2020-4-26T02:01:05Z
2020-04-26T00:03:28Z,42.805,6.029,13.2975,4.59979,2470.077,2020-4-26T02:04:08Z
2020-04-26T00:06:31Z,42.805,6.029,13.2971,4.59976,2470.087,2020-4-26T02:07:12Z
2020-04-26T00:09:34Z,42.805,6.029,13.2971,4.59976,2470.063,2020-4-26T02:10:15Z
2020-04-26T00:12:38Z,42.805,6.029,13.2973,4.59981,2470.11,2020-4-26T02:13:18Z
2020-04-26T00:15:41Z,42.805,6.029,13.2974,4.59975,2470.053,2020-4-26T02:16:21Z
2020-04-26T00:18:44Z,42.805,6.029,13.2974,4.59975,2470.063,2020-4-26T02:19:25Z
2020-04-26T00:21:47Z,42.805,6.029,13.2971,4.59976,2470.1,2020-4-26T02:22:28Z
2020-04-26T00:24:51Z,42.805,6.029,13.2968,4.59982,2470.053,2020-4-26T02:25:31Z
2020-04-26T00:27:54Z,42.805,6.029,13.2972,4.60000,2470.063,2020-4-26T02:28:34Z
2020-04-26T00:30:57Z,42.805,6.029,13.2968,4.59990,2470.063,2020-4-26T02:31:38Z
2020-04-26T00:34:00Z,42.805,6.029,13.2967,4.59986,2470.04,2020-4-26T02:34:41Z
2020-04-26T00:37:04Z,42.805,6.029,13.2974,4.59982,2470.063,2020-4-26T02:37:44Z
2020-04-26T00:40:07Z,42.805,6.029,13.2973,4.59984,2470.087,2020-4-26T02:40:47Z
2020-04-26T00:43:10Z,42.805,6.029,13.2971,4.59986,2470.04,2020-4-26T02:43:51Z
2020-04-26T00:46:13Z,42.805,6.029,13.2969,4.59978,2470.04,2020-4-26T02:46:54Z
2020-04-26T00:49:17Z,42.805,6.029,13.2973,4.59998,2470.053,2020-4-26T02:49:57Z
2020-04-26T00:52:20Z,42.805,6.029,13.2971,4.59990,2470.063,2020-4-26T02:53:00Z
2020-04-26T00:55:23Z,42.805,6.029,13.2975,4.59979,2470.063,2020-4-26T02:56:04Z
2020-04-26T00:58:26Z,42.805,6.029,13.2972,4.59976,2470.04,2020-4-26T02:59:07Z
2020-04-26T01:01:30Z,42.805,6.029,13.2968,4.59975,2470.063,2020-4-26T03:02:10Z
2020-04-26T01:04:33Z,42.805,6.029,13.2966,4.59978,2470.053,2020-4-26T03:05:13Z
2020-04-26T01:07:36Z,42.805,6.029,13.2974,4.59981,2470.04,2020-4-26T03:08:17Z
2020-04-26T01:10:39Z,42.805,6.029,13.2972,4.59988,2470.04,2020-4-26T03:11:20Z
2020-04-26T01:13:43Z,42.805,6.029,13.2971,4.59986,2470.017,2020-4-26T03:14:23Z
2020-04-26T01:16:46Z,42.805,6.029,13.2970,4.59978,2470.063,2020-4-26T03:17:26Z
2020-04-26T01:19:49Z,42.805,6.029,13.2974,4.59976,2470.053,2020-4-26T03:20:29Z
2020-04-26T01:22:52Z,42.805,6.029,13.2968,4.59978,2470.04,2020-4-26T03:23:33Z
2020-04-26T01:25:55Z,42.805,6.029,13.2967,4.59979,2470.077,2020-4-26T03:26:36Z
2020-04-26T01:28:59Z,42.805,6.029,13.2969,4.59979,2470.077,2020-4-26T03:29:39Z
2020-04-26T01:32:02Z,42.805,6.029,13.2972,4.59976,2470.03,2020-4-26T03:32:43Z
2020-04-26T01:35:05Z,42.805,6.029,13.2972,4.59976,2470.017,2020-4-26T03:35:46Z
2020-04-26T01:38:09Z,42.805,6.029,13.2971,4.59984,2470.063,2020-4-26T03:38:49Z
2020-04-26T01:41:12Z,42.805,6.029,13.2971,4.59981,2470.053,2020-4-26T03:41:52Z
2020-04-26T01:44:15Z,42.805,6.029,13.2970,4.59975,2470.063,2020-4-26T03:44:56Z
2020-04-26T01:47:19Z,42.805,6.029,13.2971,4.59975,2469.993,2020-4-26T03:47:59Z
2020-04-26T01:50:22Z,42.805,6.029,13.2970,4.59980,2469.993,2020-4-26T03:51:02Z
2020-04-26T01:53:25Z,42.805,6.029,13.2971,4.59977,2470.017,2020-4-26T03:54:06Z
2020-04-26T01:56:28Z,42.805,6.029,13.2971,4.59991,2470.03,2020-4-26T03:57:09Z
2020-04-26T01:59:32Z,42.805,6.029,13.2969,4.59978,2470.007,2020-4-26T04:00:12Z
2020-04-26T02:02:35Z,42.805,6.029,13.2970,4.59980,2470.03,2020-4-26T04:03:15Z
2020-04-26T02:05:38Z,42.805,6.029,13.2973,4.59984,2470.017,2020-4-26T04:06:19Z
2020-04-26T02:08:41Z,42.805,6.029,13.2975,4.59979,2470.04,2020-4-26T04:09:22Z
2020-04-26T02:11:45Z,42.805,6.029,13.2971,4.59981,2470.017,2020-4-26T04:12:25Z
2020-04-26T02:14:48Z,42.805,6.029,13.2973,4.59976,2470.007,2020-4-26T04:15:28Z
2020-04-26T02:17:51Z,42.805,6.029,13.2971,4.59976,2470.017,2020-4-26T04:18:32Z
2020-04-26T02:20:54Z,42.805,6.029,13.2969,4.59978,2470.03,2020-4-26T04:21:35Z
2020-04-26T02:23:58Z,42.805,6.029,13.2968,4.59976,2470.017,2020-4-26T04:24:38Z
2020-04-26T02:27:01Z,42.805,6.029,13.2972,4.59974,2470.053,2020-4-26T04:27:41Z
2020-04-26T02:30:04Z,42.805,6.029,13.2969,4.59977,2469.993,2020-4-26T04:30:45Z
2020-04-26T02:33:07Z,42.805,6.029,13.2969,4.59980,2469.947,2020-4-26T04:33:48Z
2020-04-26T02:36:11Z,42.805,6.029,13.2970,4.59988,2469.993,2020-4-26T04:36:51Z
2020-04-26T02:39:14Z,42.805,6.029,13.2970,4.59981,2469.984,2020-4-26T04:39:54Z
2020-04-26T02:42:17Z,42.805,6.029,13.2978,4.59982,2470.007,2020-4-26T04:42:58Z
2020-04-26T02:45:20Z,42.805,6.029,13.2974,4.59982,2470.007,2020-4-26T04:46:01Z
2020-04-26T02:48:24Z,42.805,6.029,13.2973,4.60001,2469.97,2020-4-26T04:49:04Z
2020-04-26T02:51:27Z,42.805,6.029,13.2968,4.59988,2470.017,2020-4-26T04:52:07Z
2020-04-26T02:54:30Z,42.805,6.029,13.2971,4.59982,2469.993,2020-4-26T04:55:11Z
2020-04-26T02:57:33Z,42.805,6.029,13.2971,4.59978,2469.97,2020-4-26T04:58:14Z
2020-04-26T03:00:37Z,42.805,6.029,13.2970,4.59974,2469.984,2020-4-26T05:01:17Z
2020-04-26T03:03:40Z,42.805,6.029,13.2971,4.59974,2470.007,2020-4-26T05:04:20Z
2020-04-26T03:06:43Z,42.805,6.029,13.2968,4.59974,2469.993,2020-4-26T05:07:24Z
2020-04-26T03:09:46Z,42.805,6.029,13.2971,4.59973,2469.97,2020-4-26T05:10:27Z
2020-04-26T03:12:50Z,42.805,6.029,13.2969,4.59973,2469.97,2020-4-26T05:13:30Z
2020-04-26T03:15:53Z,42.805,6.029,13.2969,4.59992,2469.984,2020-4-26T05:16:34Z
2020-04-26T03:18:56Z,42.805,6.029,13.2969,4.59980,2469.947,2020-4-26T05:19:37Z
2020-04-26T03:22:00Z,42.805,6.029,13.2970,4.59992,2469.97,2020-4-26T05:22:40Z
2020-04-26T03:25:03Z,42.805,6.029,13.2968,4.59985,2469.97,2020-4-26T05:25:43Z
2020-04-26T03:28:06Z,42.805,6.029,13.2968,4.59975,2469.984,2020-4-26T05:28:46Z
2020-04-26T03:31:09Z,42.805,6.029,13.2968,4.59973,2469.97,2020-4-26T05:31:50Z
2020-04-26T03:34:12Z,42.805,6.029,13.2971,4.59986,2470.017,2020-4-26T05:34:53Z
2020-04-26T03:37:16Z,42.805,6.029,13.2971,4.59976,2469.97,2020-4-26T05:37:56Z
2020-04-26T03:40:19Z,42.805,6.029,13.2971,4.59976,2470.007,2020-4-26T05:40:59Z
2020-04-26T03:43:22Z,42.805,6.029,13.2971,4.59979,2469.984,2020-4-26T05:44:03Z
2020-04-26T03:46:25Z,42.805,6.029,13.2971,4.59984,2469.97,2020-4-26T05:47:06Z
2020-04-26T03:49:29Z,42.805,6.029,13.2967,4.59976,2469.984,2020-4-26T05:50:09Z
2020-04-26T03:52:32Z,42.805,6.029,13.2967,4.59982,2469.96,2020-4-26T05:53:12Z
2020-04-26T03:55:35Z,42.805,6.029,13.2974,4.59987,2470.007,2020-4-26T05:56:16Z
2020-04-26T03:58:38Z,42.805,6.029,13.2968,4.59981,2469.947,2020-4-26T05:59:19Z
2020-04-26T04:01:42Z,42.805,6.029,13.2967,4.59981,2470.007,2020-4-26T06:02:22Z
2020-04-26T04:04:45Z,42.805,6.029,13.2973,4.59982,2470.007,2020-4-26T06:05:25Z
2020-04-26T04:07:48Z,42.805,6.029,13.2968,4.59979,2469.97,2020-4-26T06:08:29Z
2020-04-26T04:10:51Z,42.805,6.029,13.2973,4.59978,2469.984,2020-4-26T06:11:32Z
2020-04-26T04:13:55Z,42.805,6.029,13.2971,4.59981,2469.993,2020-4-26T06:14:35Z
2020-04-26T04:16:58Z,42.805,6.029,13.2974,4.59985,2469.984,2020-4-26T06:17:39Z
2020-04-26T04:20:01Z,42.805,6.029,13.2968,4.59983,2469.993,2020-4-26T06:20:42Z
2020-04-26T04:23:05Z,42.805,6.029,13.2970,4.59981,2469.984,2020-4-26T06:23:45Z
2020-04-26T04:26:08Z,42.805,6.029,13.2971,4.59978,2469.947,2020-4-26T06:26:49Z
2020-04-26T04:29:11Z,42.805,6.029,13.2970,4.59981,2469.984,2020-4-26T06:29:52Z
2020-04-26T04:32:15Z,42.805,6.029,13.2970,4.59976,2469.97,2020-4-26T06:32:55Z
2020-04-26T04:35:18Z,42.805,6.029,13.2968,4.59980,2469.984,2020-4-26T06:35:58Z
2020-04-26T04:38:21Z,42.805,6.029,13.2973,4.59979,2469.993,2020-4-26T06:39:02Z
2020-04-26T04:41:24Z,42.805,6.029,13.2971,4.59973,2469.947,2020-4-26T06:42:05Z
2020-04-26T04:44:28Z,42.805,6.029,13.2972,4.59975,2470.007,2020-4-26T06:45:08Z
2020-04-26T04:47:31Z,42.805,6.029,13.2969,4.59977,2469.984,2020-4-26T06:48:11Z
2020-04-26T04:50:34Z,42.805,6.029,13.2969,4.59979,2470.007,2020-4-26T06:51:15Z
2020-04-26T04:53:38Z,42.805,6.029,13.2969,4.59975,2469.97,2020-4-26T06:54:18Z
2020-04-26T04:56:41Z,42.805,6.029,13.2968,4.59980,2470.007,2020-4-26T06:57:21Z
2020-04-26T04:59:44Z,42.805,6.029,13.2973,4.59983,2469.97,2020-4-26T07:00:24Z
2020-04-26T05:02:47Z,42.805,6.029,13.2969,4.59976,2470.017,2020-4-26T07:03:28Z
2020-04-26T05:05:50Z,42.805,6.029,13.2968,4.59980,2469.97,2020-4-26T07:06:31Z
2020-04-26T05:08:54Z,42.805,6.029,13.2968,4.59978,2469.947,2020-4-26T07:09:34Z
2020-04-26T05:11:57Z,42.805,6.029,13.2971,4.59979,2469.97,2020-4-26T07:12:37Z
2020-04-26T05:15:00Z,42.805,6.029,13.2969,4.59980,2469.993,2020-4-26T07:15:41Z
2020-04-26T05:18:03Z,42.805,6.029,13.2971,4.59980,2470.017,2020-4-26T07:18:44Z
2020-04-26T05:21:07Z,42.805,6.029,13.2971,4.59981,2470.007,2020-4-26T07:21:47Z
2020-04-26T05:24:10Z,42.805,6.029,13.2975,4.59980,2470.017,2020-4-26T07:24:50Z
2020-04-26T05:27:13Z,42.805,6.029,13.2973,4.59978,2469.993,2020-4-26T07:27:53Z
2020-04-26T05:30:16Z,42.805,6.029,13.2969,4.59978,2470.017,2020-4-26T07:30:57Z
2020-04-26T05:33:19Z,42.805,6.029,13.2971,4.59976,2470.03,2020-4-26T07:34:00Z
2020-04-26T05:36:23Z,42.805,6.029,13.2972,4.59975,2470.03,2020-4-26T07:37:03Z
2020-04-26T05:39:26Z,42.805,6.029,13.2971,4.59975,2470.017,2020-4-26T07:40:06Z
2020-04-26T05:42:29Z,42.805,6.029,13.2972,4.59978,2470.053,2020-4-26T07:43:10Z
2020-04-26T05:45:32Z,42.805,6.029,13.2970,4.59975,2470.03,2020-4-26T07:46:13Z
2020-04-26T05:48:36Z,42.805,6.029,13.2973,4.59974,2470.03,2020-4-26T07:49:16Z
2020-04-26T05:51:39Z,42.805,6.029,13.2975,4.59976,2470.017,2020-4-26T07:52:19Z
2020-04-26T05:54:42Z,42.805,6.029,13.2970,4.59974,2470.04,2020-4-26T07:55:22Z
2020-04-26T05:57:45Z,42.805,6.029,13.2974,4.59978,2470.077,2020-4-26T07:58:26Z
2020-04-26T06:00:48Z,42.805,6.029,13.2971,4.59976,2470.063,2020-4-26T08:01:29Z
2020-04-26T06:03:52Z,42.805,6.029,13.2973,4.59974,2470.077,2020-4-26T08:04:32Z
2020-04-26T06:06:55Z,42.805,6.029,13.2971,4.59978,2470.053,2020-4-26T08:07:35Z
2020-04-26T06:09:58Z,42.805,6.029,13.2973,4.59978,2470.04,2020-4-26T08:10:39Z
2020-04-26T06:13:01Z,42.805,6.029,13.2974,4.59982,2470.077,2020-4-26T08:13:42Z
2020-04-26T06:16:05Z,42.805,6.029,13.2971,4.59978,2470.03,2020-4-26T08:16:45Z
2020-04-26T06:19:08Z,42.805,6.029,13.2975,4.59980,2470.053,2020-4-26T08:19:48Z
2020-04-26T06:22:11Z,42.805,6.029,13.2973,4.59978,2470.053,2020-4-26T08:22:51Z
2020-04-26T06:25:14Z,42.805,6.029,13.2973,4.59975,2470.053,2020-4-26T08:25:55Z
2020-04-26T06:28:18Z,42.805,6.029,13.2966,4.59973,2470.053,2020-4-26T08:28:58Z
2020-04-26T06:31:21Z,42.805,6.029,13.2970,4.59978,2470.077,2020-4-26T08:32:02Z
2020-04-26T06:34:24Z,42.805,6.029,13.2969,4.59975,2470.063,2020-4-26T08:35:05Z
2020-04-26T06:37:28Z,42.805,6.029,13.2972,4.59976,2470.1,2020-4-26T08:38:08Z
2020-04-26T06:40:31Z,42.805,6.029,13.2967,4.59975,2470.1,2020-4-26T08:41:11Z
2020-04-26T06:43:34Z,42.805,6.029,13.2967,4.59976,2470.077,2020-4-26T08:44:15Z
2020-04-26T06:46:37Z,42.805,6.029,13.2972,4.59975,2470.087,2020-4-26T08:47:18Z
2020-04-26T06:49:41Z,42.805,6.029,13.2969,4.59971,2470.063,2020-4-26T08:50:21Z
2020-04-26T06:52:44Z,42.805,6.029,13.2973,4.59974,2470.04,2020-4-26T08:53:24Z
2020-04-26T06:55:47Z,42.805,6.029,13.2974,4.59972,2470.087,2020-4-26T08:56:28Z
2020-04-26T06:58:50Z,42.805,6.029,13.2974,4.59973,2470.063,2020-4-26T08:59:31Z
2020-04-26T07:01:54Z,42.805,6.029,13.2968,4.59975,2470.1,2020-4-26T09:02:34Z
2020-04-26T07:04:57Z,42.805,6.029,13.2971,4.59976,2470.087,2020-4-26T09:05:37Z
2020-04-26T07:08:00Z,42.805,6.029,13.2968,4.59972,2470.063,2020-4-26T09:08:41Z
2020-04-26T07:11:03Z,42.805,6.029,13.2968,4.59975,2470.063,2020-4-26T09:11:44Z
2020-04-26T07:14:07Z,42.805,6.029,13.2969,4.59973,2470.11,2020-4-26T09:14:47Z
2020-04-26T07:17:10Z,42.805,6.029,13.2969,4.59978,2470.087,2020-4-26T09:17:50Z
2020-04-26T07:20:13Z,42.805,6.029,13.2974,4.59973,2470.11,2020-4-26T09:20:54Z
2020-04-26T07:23:16Z,42.805,6.029,13.2970,4.59976,2470.11,2020-4-26T09:23:57Z
2020-04-26T07:26:20Z,42.805,6.029,13.2975,4.59978,2470.11,2020-4-26T09:27:00Z
2020-04-26T07:29:23Z,42.805,6.029,13.2971,4.59973,2470.11,2020-4-26T09:30:03Z
2020-04-26T07:32:26Z,42.805,6.029,13.2971,4.59983,2470.147,2020-4-26T09:33:06Z
2020-04-26T07:35:29Z,42.805,6.029,13.2973,4.59976,2470.11,2020-4-26T09:36:10Z
2020-04-26T07:38:32Z,42.805,6.029,13.2969,4.59975,2470.124,2020-4-26T09:39:13Z
2020-04-26T07:41:36Z,42.805,6.029,13.2971,4.59973,2470.11,2020-4-26T09:42:16Z
2020-04-26T07:44:39Z,42.805,6.029,13.2969,4.59973,2470.124,2020-4-26T09:45:19Z
2020-04-26T07:47:42Z,42.805,6.029,13.2971,4.59975,2470.077,2020-4-26T09:48:23Z
2020-04-26T07:50:45Z,42.805,6.029,13.2974,4.59973,2470.1,2020-4-26T09:51:26Z
2020-04-26T07:53:49Z,42.805,6.029,13.2972,4.59973,2470.11,2020-4-26T09:54:29Z
2020-04-26T07:56:52Z,42.805,6.029,13.2968,4.59983,2470.11,2020-4-26T09:57:33Z
2020-04-26T07:59:55Z,42.805,6.029,13.2970,4.59975,2470.124,2020-4-26T10:00:36Z
2020-04-26T08:02:59Z,42.805,6.029,13.2974,4.59976,2470.096,2020-4-26T10:03:39Z
2020-04-26T08:06:02Z,42.805,6.029,13.2968,4.59974,2470.11,2020-4-26T10:06:42Z
2020-04-26T08:09:05Z,42.805,6.029,13.2971,4.59973,2470.124,2020-4-26T10:09:46Z
2020-04-26T08:12:08Z,42.805,6.029,13.2972,4.59974,2470.11,2020-4-26T10:12:49Z
2020-04-26T08:15:12Z,42.805,6.029,13.2971,4.59973,2470.147,2020-4-26T10:15:52Z
2020-04-26T08:18:15Z,42.805,6.029,13.2969,4.59972,2470.147,2020-4-26T10:18:55Z
2020-04-26T08:21:18Z,42.805,6.029,13.2971,4.59975,2470.133,2020-4-26T10:21:59Z
2020-04-26T08:24:21Z,42.805,6.029,13.2973,4.59972,2470.087,2020-4-26T10:25:02Z
2020-04-26T08:27:25Z,42.805,6.029,13.2971,4.59973,2470.133,2020-4-26T10:28:05Z
2020-04-26T08:30:28Z,42.805,6.029,13.2971,4.59972,2470.147,2020-4-26T10:31:08Z
2020-04-26T08:33:31Z,42.805,6.029,13.2975,4.59978,2470.124,2020-4-26T10:34:12Z
2020-04-26T08:36:34Z,42.805,6.029,13.2968,4.59975,2470.147,2020-4-26T10:37:15Z
2020-04-26T08:39:38Z,42.805,6.029,13.2971,4.59973,2470.124,2020-4-26T10:40:18Z
2020-04-26T08:42:41Z,42.805,6.029,13.2976,4.59974,2470.11,2020-4-26T10:43:21Z
2020-04-26T08:45:44Z,42.805,6.029,13.2974,4.59974,2470.11,2020-4-26T10:46:25Z
2020-04-26T08:48:47Z,42.805,6.029,13.2967,4.59973,2470.171,2020-4-26T10:49:28Z
2020-04-26T08:51:51Z,42.805,6.029,13.2971,4.59974,2470.11,2020-4-26T10:52:31Z
2020-04-26T08:54:54Z,42.805,6.029,13.2970,4.59975,2470.124,2020-4-26T10:55:34Z
2020-04-26T08:57:57Z,42.805,6.029,13.2968,4.59973,2470.147,2020-4-26T10:58:38Z
2020-04-26T09:01:00Z,42.805,6.029,13.2971,4.59973,2470.124,2020-4-26T11:01:41Z
2020-04-26T09:04:04Z,42.805,6.029,13.2974,4.59973,2470.1,2020-4-26T11:04:44Z
2020-04-26T09:07:07Z,42.805,6.029,13.2971,4.59973,2470.11,2020-4-26T11:07:47Z
2020-04-26T09:10:10Z,42.805,6.029,13.2970,4.59973,2470.1,2020-4-26T11:10:51Z
2020-04-26T09:13:13Z,42.805,6.029,13.2969,4.59978,2470.133,2020-4-26T11:13:54Z
2020-04-26T09:16:17Z,42.805,6.029,13.2968,4.59972,2470.133,2020-4-26T11:16:57Z
2020-04-26T09:19:20Z,42.805,6.029,13.2971,4.59974,2470.11,2020-4-26T11:20:00Z
2020-04-26T09:22:23Z,42.805,6.029,13.2971,4.59973,2470.147,2020-4-26T11:23:04Z
2020-04-26T09:25:27Z,42.805,6.029,13.2968,4.59973,2470.124,2020-4-26T11:26:07Z
2020-04-26T09:28:30Z,42.805,6.029,13.2976,4.59972,2470.11,2020-4-26T11:29:10Z
2020-04-26T09:31:33Z,42.805,6.029,13.2972,4.59974,2470.1,2020-4-26T11:32:13Z
2020-04-26T09:34:36Z,42.805,6.029,13.2971,4.59974,2470.147,2020-4-26T11:35:17Z
2020-04-26T09:37:40Z,42.805,6.029,13.2969,4.59973,2470.11,2020-4-26T11:38:20Z
2020-04-26T09:40:43Z,42.805,6.029,13.2974,4.59975,2470.147,2020-4-26T11:41:23Z
2020-04-26T09:43:46Z,42.805,6.029,13.2976,4.59973,2470.11,2020-4-26T11:44:27Z
2020-04-26T09:46:49Z,42.805,6.029,13.2973,4.59978,2470.11,2020-4-26T11:47:30Z
2020-04-26T09:49:53Z,42.805,6.029,13.2974,4.59974,2470.11,2020-4-26T11:50:33Z
2020-04-26T09:52:56Z,42.805,6.029,13.2971,4.59974,2470.087,2020-4-26T11:53:37Z
2020-04-26T09:56:00Z,42.805,6.029,13.2974,4.59973,2470.063,2020-4-26T11:56:40Z
2020-04-26T09:59:03Z,42.805,6.029,13.2976,4.59973,2470.124,2020-4-26T11:59:43Z
2020-04-26T10:02:06Z,42.805,6.029,13.2971,4.59974,2470.077,2020-4-26T12:02:47Z
2020-04-26T10:05:09Z,42.805,6.029,13.2973,4.59973,2470.11,2020-4-26T12:05:50Z
2020-04-26T10:08:13Z,42.805,6.029,13.2974,4.59973,2470.063,2020-4-26T12:08:53Z
2020-04-26T10:11:16Z,42.805,6.029,13.2971,4.59971,2470.124,2020-4-26T12:11:56Z
2020-04-26T10:14:19Z,42.805,6.029,13.2970,4.59972,2470.063,2020-4-26T12:15:00Z
2020-04-26T10:17:23Z,42.805,6.029,13.2971,4.59974,2470.133,2020-4-26T12:18:03Z
2020-04-26T10:20:26Z,42.805,6.029,13.2973,4.59979,2470.1,2020-4-26T12:21:06Z
2020-04-26T10:23:29Z,42.805,6.029,13.2972,4.59973,2470.087,2020-4-26T12:24:09Z
2020-04-26T10:26:32Z,42.805,6.029,13.2972,4.59972,2470.053,2020-4-26T12:27:13Z
2020-04-26T10:29:35Z,42.805,6.029,13.2971,4.59973,2470.087,2020-4-26T12:30:16Z
2020-04-26T10:32:39Z,42.805,6.029,13.2970,4.59974,2470.087,2020-4-26T12:33:19Z
2020-04-26T10:35:42Z,42.805,6.029,13.2976,4.59972,2470.1,2020-4-26T12:36:22Z
2020-04-26T10:38:45Z,42.805,6.029,13.2971,4.59976,2470.1,2020-4-26T12:39:26Z
2020-04-26T10:41:48Z,42.805,6.029,13.2971,4.59976,2470.053,2020-4-26T12:42:29Z
2020-04-26T10:44:52Z,42.805,6.029,13.2973,4.59971,2470.087,2020-4-26T12:45:32Z
2020-04-26T10:47:55Z,42.805,6.029,13.2971,4.59972,2470.053,2020-4-26T12:48:36Z
2020-04-26T10:50:58Z,42.805,6.029,13.2969,4.59972,2470.1,2020-4-26T12:51:39Z
2020-04-26T10:54:02Z,42.805,6.029,13.2970,4.59975,2470.04,2020-4-26T12:54:42Z
2020-04-26T10:57:05Z,42.805,6.029,13.2968,4.59977,2470.063,2020-4-26T12:57:45Z
2020-04-26T11:00:08Z,42.805,6.029,13.2973,4.59972,2470.063,2020-4-26T13:00:49Z
2020-04-26T11:03:11Z,42.805,6.029,13.2973,4.59973,2470.04,2020-4-26T13:03:52Z
2020-04-26T11:06:15Z,42.805,6.029,13.2969,4.59973,2470.087,2020-4-26T13:06:55Z
2020-04-26T11:09:18Z,42.805,6.029,13.2972,4.59971,2470.077,2020-4-26T13:09:58Z
2020-04-26T11:12:21Z,42.805,6.029,13.2971,4.59969,2470.063,2020-4-26T13:13:02Z
2020-04-26T11:15:25Z,42.805,6.029,13.2970,4.59970,2470.053,2020-4-26T13:16:05Z
2020-04-26T11:18:28Z,42.805,6.029,13.2971,4.59971,2470.063,2020-4-26T13:19:08Z
2020-04-26T11:21:31Z,42.805,6.029,13.2968,4.59971,2470.03,2020-4-26T13:22:12Z
2020-04-26T11:24:34Z,42.805,6.029,13.2965,4.59976,2470.053,2020-4-26T13:25:15Z
2020-04-26T11:27:38Z,42.805,6.029,13.2971,4.59972,2470.077,2020-4-26T13:28:18Z
2020-04-26T11:30:41Z,42.805,6.029,13.2971,4.59985,2470.03,2020-4-26T13:31:21Z
2020-04-26T11:33:44Z,42.805,6.029,13.2972,4.59974,2470.063,2020-4-26T13:34:25Z
2020-04-26T11:36:48Z,42.805,6.029,13.2967,4.59973,2470.04,2020-4-26T13:37:28Z
2020-04-26T11:39:51Z,42.805,6.029,13.2970,4.59981,2470.017,2020-4-26T13:40:31Z
2020-04-26T11:42:54Z,42.805,6.029,13.2969,4.59972,2470.04,2020-4-26T13:43:35Z
2020-04-26T11:45:57Z,42.805,6.029,13.2968,4.59982,2470.017,2020-4-26T13:46:38Z
2020-04-26T11:49:01Z,42.805,6.029,13.2972,4.59971,2470.04,2020-4-26T13:49:41Z
2020-04-26T11:52:04Z,42.805,6.029,13.2973,4.59971,2470.03,2020-4-26T13:52:44Z
2020-04-26T11:55:07Z,42.805,6.029,13.2973,4.59972,2470.017,2020-4-26T13:55:48Z
2020-04-26T11:58:10Z,42.805,6.029,13.2974,4.59971,2470.007,2020-4-26T13:58:51Z
2020-04-26T12:01:14Z,42.805,6.029,13.2967,4.59973,2470.04,2020-4-26T14:01:54Z
2020-04-26T12:04:17Z,42.805,6.029,13.2970,4.59973,2470.003,2020-4-26T14:04:57Z
2020-04-26T12:07:20Z,42.805,6.029,13.2972,4.59972,2470.017,2020-4-26T14:08:01Z
2020-04-26T12:10:23Z,42.805,6.029,13.2969,4.59972,2470.04,2020-4-26T14:11:04Z
2020-04-26T12:13:27Z,42.805,6.029,13.2974,4.59971,2469.993,2020-4-26T14:14:07Z
2020-04-26T12:16:30Z,42.805,6.029,13.2973,4.59972,2469.993,2020-4-26T14:17:11Z
2020-04-26T12:19:34Z,42.805,6.029,13.2967,4.59973,2470.017,2020-4-26T14:20:14Z
2020-04-26T12:22:37Z,42.805,6.029,13.2974,4.59972,2469.993,2020-4-26T14:23:17Z
2020-04-26T12:25:40Z,42.805,6.029,13.2976,4.59976,2470.007,2020-4-26T14:26:20Z
2020-04-26T12:28:43Z,42.805,6.029,13.2968,4.59971,2470.007,2020-4-26T14:29:24Z
2020-04-26T12:31:46Z,42.805,6.029,13.2970,4.59974,2470.017,2020-4-26T14:32:27Z
2020-04-26T12:34:50Z,42.805,6.029,13.2971,4.59971,2470.03,2020-4-26T14:35:30Z
2020-04-26T12:37:53Z,42.805,6.029,13.2969,4.59972,2470.04,2020-4-26T14:38:33Z
2020-04-26T12:40:56Z,42.805,6.029,13.2974,4.59981,2469.993,2020-4-26T14:41:37Z
2020-04-26T12:43:59Z,42.805,6.029,13.2967,4.59974,2469.984,2020-4-26T14:44:40Z
2020-04-26T12:47:03Z,42.805,6.029,13.2972,4.59978,2470.03,2020-4-26T14:47:43Z
2020-04-26T12:50:06Z,42.805,6.029,13.2969,4.59978,2469.993,2020-4-26T14:50:46Z
2020-04-26T12:53:09Z,42.805,6.029,13.2972,4.59975,2469.993,2020-4-26T14:53:50Z
2020-04-26T12:56:13Z,42.805,6.029,13.2972,4.59976,2470.007,2020-4-26T14:56:53Z
2020-04-26T12:59:16Z,42.805,6.029,13.2972,4.59975,2470.007,2020-4-26T14:59:56Z
2020-04-26T13:02:19Z,42.805,6.029,13.2974,4.59972,2470.044,2020-4-26T15:03:00Z
2020-04-26T13:05:22Z,42.805,6.029,13.2971,4.59971,2470.017,2020-4-26T15:06:03Z
2020-04-26T13:08:26Z,42.805,6.029,13.2970,4.59972,2469.97,2020-4-26T15:09:06Z
2020-04-26T13:11:29Z,42.805,6.029,13.2970,4.59971,2469.97,2020-4-26T15:12:09Z
2020-04-26T13:14:32Z,42.805,6.029,13.2968,4.59972,2469.993,2020-4-26T15:15:12Z
2020-04-26T13:17:35Z,42.805,6.029,13.2972,4.59971,2469.984,2020-4-26T15:18:16Z
2020-04-26T13:20:39Z,42.805,6.029,13.2973,4.59972,2470.007,2020-4-26T15:21:19Z
2020-04-26T13:23:42Z,42.805,6.029,13.2971,4.59971,2470.007,2020-4-26T15:24:23Z
2020-04-26T13:26:45Z,42.805,6.029,13.2977,4.59972,2469.97,2020-4-26T15:27:26Z
2020-04-26T13:29:49Z,42.805,6.029,13.2971,4.59976,2469.97,2020-4-26T15:30:29Z
2020-04-26T13:32:52Z,42.805,6.029,13.2968,4.59973,2469.97,2020-4-26T15:33:32Z
2020-04-26T13:35:55Z,42.805,6.029,13.2973,4.59978,2469.947,2020-4-26T15:36:36Z
2020-04-26T13:38:58Z,42.805,6.029,13.2969,4.59975,2469.97,2020-4-26T15:39:39Z
2020-04-26T13:42:02Z,42.805,6.029,13.2972,4.59977,2469.984,2020-4-26T15:42:42Z
2020-04-26T13:45:05Z,42.805,6.029,13.2972,4.59982,2469.97,2020-4-26T15:45:45Z
2020-04-26T13:48:08Z,42.805,6.029,13.2970,4.59975,2470.017,2020-4-26T15:48:49Z
2020-04-26T13:51:11Z,42.805,6.029,13.2970,4.59972,2469.97,2020-4-26T15:51:52Z
2020-04-26T13:54:15Z,42.805,6.029,13.2971,4.59983,2469.97,2020-4-26T15:54:55Z
2020-04-26T13:57:18Z,42.805,6.029,13.2971,4.59978,2470.007,2020-4-26T15:57:58Z
2020-04-26T14:00:21Z,42.805,6.029,13.2970,4.59976,2469.97,2020-4-26T16:01:02Z
2020-04-26T14:03:25Z,42.805,6.029,13.2973,4.59979,2469.96,2020-4-26T16:04:05Z
2020-04-26T14:06:28Z,42.805,6.029,13.2969,4.59974,2469.947,2020-4-26T16:07:08Z
2020-04-26T14:09:31Z,42.805,6.029,13.2972,4.59975,2470.007,2020-4-26T16:10:11Z
2020-04-26T14:12:34Z,42.805,6.029,13.2971,4.59976,2469.96,2020-4-26T16:13:15Z
2020-04-26T14:15:38Z,42.805,6.029,13.2974,4.59973,2469.947,2020-4-26T16:16:18Z
2020-04-26T14:18:41Z,42.805,6.029,13.2973,4.59973,2469.97,2020-4-26T16:19:21Z
2020-04-26T14:21:44Z,42.805,6.029,13.2969,4.59973,2469.96,2020-4-26T16:22:25Z
2020-04-26T14:24:47Z,42.805,6.029,13.2973,4.59972,2469.97,2020-4-26T16:25:28Z
2020-04-26T14:27:51Z,42.805,6.029,13.2968,4.59973,2469.947,2020-4-26T16:28:31Z
2020-04-26T14:30:54Z,42.805,6.029,13.2969,4.59972,2469.923,2020-4-26T16:31:34Z
2020-04-26T14:33:57Z,42.805,6.029,13.2971,4.59973,2469.96,2020-4-26T16:34:38Z
2020-04-26T14:37:01Z,42.805,6.029,13.2971,4.59975,2469.947,2020-4-26T16:37:41Z
2020-04-26T14:40:04Z,42.805,6.029,13.2980,4.59978,2469.96,2020-4-26T16:40:44Z
2020-04-26T14:43:07Z,42.805,6.029,13.2975,4.59978,2469.96,2020-4-26T16:43:48Z
2020-04-26T14:46:10Z,42.805,6.029,13.2977,4.59974,2469.984,2020-4-26T16:46:51Z
2020-04-26T14:49:13Z,42.805,6.029,13.2979,4.59975,2469.947,2020-4-26T16:49:54Z
2020-04-26T14:52:17Z,42.805,6.029,13.2982,4.59978,2469.984,2020-4-26T16:52:57Z
2020-04-26T14:55:20Z,42.805,6.029,13.2973,4.59981,2469.947,2020-4-26T16:56:00Z
2020-04-26T14:58:23Z,42.805,6.029,13.2976,4.59975,2469.937,2020-4-26T16:59:04Z
2020-04-26T15:01:27Z,42.805,6.029,13.2971,4.59979,2469.937,2020-4-26T17:02:07Z
2020-04-26T15:04:30Z,42.805,6.029,13.2979,4.59976,2469.947,2020-4-26T17:05:10Z
2020-04-26T15:07:33Z,42.805,6.029,13.2982,4.59978,2469.97,2020-4-26T17:08:14Z
2020-04-26T15:10:37Z,42.805,6.029,13.2979,4.59976,2469.96,2020-4-26T17:11:17Z
2020-04-26T15:13:40Z,42.805,6.029,13.2972,4.59976,2469.97,2020-4-26T17:14:20Z